Location: Quedlinburg
(51.7921°N, 11.1414°E)
Time: 15:03:52
(UTC+02:00)

CUBESAT XI-V - Pass Details

Date: 24 March 2026
Orbit: 643 x 664 km, 98.3° (Epoch: 17 April)

Event Time Altitude Azimuth Distance (km) Brightness Sun altitude
Exits shadow 02:34:45 41° 66° (ENE) 953 ? -29.9°
Drops below altitude 10° 02:38:56 10° 357° (N) 2,060 ? -29.5°
Sets 02:41:14 0° 351° (N) 2,973 ? -29.3°
